When you browse on this site, cookies collect data to enhance your experience and personalize the content and advertising you see.
Visit our Privacy Policy to learn more. By continuing to use the site, you agree to this use of cookies and data.
  • In Österreich
  • Länderverzeichnis
  • Für 7 Tage
  • Wassertemperatur
  • Wetterkarte
  • News
  • Widgets
  • user-avatar
    Anmelden

    Stündliche Wetter Maklok

    Heute, 25 Februar, Dienstag

    Zeit Temperatur Niederschläge Wind Luftdruck Luftfeuchtigkeit
    00:00 -2°C° 0 mm 3 m/S 736 mmHg 76%
    01:00 -2°C° 0 mm 3 m/S 736 mmHg 77%
    02:00 -2°C° 0 mm 3 m/S 736 mmHg 77%
    03:00 -2°C° 0 mm 2 m/S 737 mmHg 79%
    04:00 -2°C° 0 mm 2 m/S 737 mmHg 80%
    05:00 -3°C° 0 mm 2 m/S 737 mmHg 82%
    06:00 -3°C° 0 mm 2 m/S 737 mmHg 82%
    07:00 -3°C° 0 mm 2 m/S 737 mmHg 83%
    08:00 -3°C° 0 mm 2 m/S 737 mmHg 84%
    09:00 -2°C° 0 mm 2 m/S 737 mmHg 76%
    10:00 -1°C° 0 mm 3 m/S 736 mmHg 68%
    11:00 0°C° 0 mm 3 m/S 736 mmHg 61%
    12:00 +1°C° 0 mm 3 m/S 736 mmHg 58%
    13:00 +1°C° 0 mm 3 m/S 736 mmHg 56%
    14:00 +3°C° 0 mm 2 m/S 736 mmHg 54%
    15:00 +2°C° 0 mm 2 m/S 735 mmHg 59%
    16:00 +1°C° 0 mm 2 m/S 735 mmHg 64%
    17:00 -1°C° 0 mm 2 m/S 734 mmHg 68%
    18:00 -1°C° 0 mm 2 m/S 734 mmHg 72%
    19:00 -1°C° 0 mm 2 m/S 734 mmHg 75%
    20:00 -1°C° 0 mm 3 m/S 733 mmHg 79%
    21:00 -1°C° 0.1 mm 3 m/S 732 mmHg 84%
    22:00 -2°C° 0.1 mm 4 m/S 732 mmHg 90%
    23:00 -2°C° 0.1 mm 4 m/S 731 mmHg 95%

    Morgen, 26 Februar, Mittwoch

    Zeit Temperatur Niederschläge Wind Luftdruck Luftfeuchtigkeit
    00:00 -1°C° 0.2 mm 4 m/S 730 mmHg 95%
    01:00 -1°C° 0.2 mm 4 m/S 730 mmHg 96%
    02:00 0°C° 0.2 mm 4 m/S 729 mmHg 96%
    03:00 0°C° 0.3 mm 4 m/S 728 mmHg 96%
    04:00 0°C° 0.3 mm 4 m/S 728 mmHg 95%
    05:00 +1°C° 0.3 mm 4 m/S 727 mmHg 95%
    06:00 +1°C° 0.3 mm 4 m/S 727 mmHg 95%
    07:00 +1°C° 0.3 mm 4 m/S 727 mmHg 95%
    08:00 +1°C° 0.3 mm 4 m/S 726 mmHg 95%
    09:00 +2°C° 1 mm 3 m/S 726 mmHg 96%
    10:00 +3°C° 1 mm 2 m/S 726 mmHg 97%
    11:00 +2°C° 1 mm 2 m/S 726 mmHg 98%
    12:00 +3°C° 0.1 mm 2 m/S 727 mmHg 96%
    13:00 +3°C° 0.1 mm 2 m/S 727 mmHg 93%
    14:00 +3°C° 0.1 mm 2 m/S 727 mmHg 91%
    15:00 +3°C° 0 mm 1 m/S 727 mmHg 91%
    16:00 +3°C° 0 mm 1 m/S 727 mmHg 91%
    17:00 +2°C° 0 mm 1 m/S 728 mmHg 91%
    18:00 +2°C° 0 mm 1 m/S 728 mmHg 91%
    19:00 +2°C° 0 mm 1 m/S 728 mmHg 91%
    20:00 +2°C° 0 mm 1 m/S 729 mmHg 91%
    21:00 +2°C° 0 mm 1 m/S 729 mmHg 91%
    22:00 +2°C° 0 mm 1 m/S 728 mmHg 92%
    23:00 +2°C° 0 mm 1 m/S 728 mmHg 92%

    übermorgen, 27 Februar, Donnerstag

    Zeit Temperatur Niederschläge Wind Luftdruck Luftfeuchtigkeit
    00:00 +2°C° 0 mm 1 m/S 728 mmHg 92%
    01:00 +2°C° 0 mm 1 m/S 728 mmHg 92%
    02:00 +1°C° 0 mm 1 m/S 728 mmHg 93%
    03:00 +1°C° 0 mm 1 m/S 728 mmHg 93%
    04:00 +1°C° 0 mm 1 m/S 728 mmHg 93%
    05:00 +1°C° 0 mm 1 m/S 727 mmHg 94%
    06:00 +1°C° 0 mm 1 m/S 727 mmHg 94%
    07:00 +1°C° 0 mm 1 m/S 727 mmHg 93%
    08:00 +2°C° 0 mm 1 m/S 727 mmHg 93%
    09:00 +1°C° 0 mm 2 m/S 727 mmHg 91%
    10:00 +2°C° 0 mm 2 m/S 727 mmHg 89%
    11:00 +3°C° 0 mm 2 m/S 727 mmHg 87%
    12:00 +2°C° 0.4 mm 2 m/S 727 mmHg 90%
    13:00 +2°C° 0.4 mm 2 m/S 727 mmHg 92%
    14:00 +1°C° 0.4 mm 2 m/S 727 mmHg 95%
    15:00 +1°C° 0.1 mm 2 m/S 727 mmHg 90%
    16:00 +1°C° 0.1 mm 2 m/S 727 mmHg 86%
    17:00 +1°C° 0.1 mm 2 m/S 727 mmHg 81%
    18:00 -1°C° 0 mm 3 m/S 728 mmHg 84%
    19:00 -1°C° 0 mm 3 m/S 728 mmHg 87%
    20:00 -1°C° 0 mm 3 m/S 729 mmHg 90%
    21:00 -2°C° 0 mm 3 m/S 729 mmHg 90%
    22:00 -2°C° 0 mm 3 m/S 729 mmHg 89%
    23:00 -2°C° 0 mm 3 m/S 729 mmHg 88%

    28 Februar, Freitag

    Zeit Temperatur Niederschläge Wind Luftdruck Luftfeuchtigkeit
    00:00 -2°C° 0 mm 3 m/S 729 mmHg 88%
    01:00 -4°C° 0 mm 3 m/S 729 mmHg 87%
    02:00 -4°C° 0 mm 3 m/S 729 mmHg 86%
    03:00 -4°C° 0 mm 3 m/S 730 mmHg 86%
    04:00 -4°C° 0 mm 3 m/S 730 mmHg 86%
    05:00 -4°C° 0 mm 3 m/S 730 mmHg 85%
    06:00 -4°C° 0 mm 3 m/S 730 mmHg 83%
    07:00 -4°C° 0 mm 3 m/S 730 mmHg 80%
    08:00 -4°C° 0 mm 3 m/S 731 mmHg 78%
    09:00 -2°C° 0 mm 3 m/S 731 mmHg 75%
    10:00 -2°C° 0 mm 3 m/S 731 mmHg 72%
    11:00 -1°C° 0 mm 3 m/S 731 mmHg 69%
    12:00 -2°C° 0 mm 4 m/S 732 mmHg 68%
    13:00 -2°C° 0 mm 4 m/S 732 mmHg 67%
    14:00 -2°C° 0 mm 4 m/S 732 mmHg 66%
    15:00 -2°C° 0 mm 4 m/S 732 mmHg 67%
    16:00 -1°C° 0 mm 3 m/S 733 mmHg 68%
    17:00 -2°C° 0 mm 3 m/S 733 mmHg 69%
    18:00 -2°C° 0 mm 3 m/S 733 mmHg 71%
    19:00 -2°C° 0 mm 3 m/S 734 mmHg 73%
    20:00 -3°C° 0 mm 2 m/S 734 mmHg 75%
    21:00 -3°C° 0 mm 2 m/S 734 mmHg 76%
    22:00 -3°C° 0 mm 2 m/S 734 mmHg 77%
    23:00 -3°C° 0 mm 2 m/S 734 mmHg 77%

    29 Februar, Samstag

    Zeit Temperatur Niederschläge Wind Luftdruck Luftfeuchtigkeit
    00:00 -3°C° 0 mm 2 m/S 734 mmHg 78%
    01:00 -3°C° 0 mm 2 m/S 735 mmHg 79%
    02:00 -4°C° 0 mm 3 m/S 735 mmHg 79%
    03:00 -4°C° 0 mm 3 m/S 735 mmHg 82%
    04:00 -2°C° 0 mm 3 m/S 735 mmHg 84%
    05:00 -2°C° 0 mm 3 m/S 735 mmHg 87%
    06:00 -2°C° 0.1 mm 3 m/S 735 mmHg 84%
    07:00 -2°C° 0.1 mm 3 m/S 735 mmHg 81%
    08:00 -4°C° 0.1 mm 3 m/S 735 mmHg 78%
    09:00 -2°C° 0 mm 3 m/S 736 mmHg 72%
    10:00 -2°C° 0 mm 3 m/S 736 mmHg 66%
    11:00 -1°C° 0 mm 3 m/S 736 mmHg 60%
    12:00 -1°C° 0 mm 3 m/S 736 mmHg 58%
    13:00 0°C° 0 mm 3 m/S 736 mmHg 56%
    14:00 0°C° 0 mm 3 m/S 737 mmHg 54%
    15:00 -1°C° 0 mm 3 m/S 737 mmHg 58%
    16:00 -1°C° 0 mm 2 m/S 737 mmHg 63%
    17:00 0°C° 0 mm 1 m/S 737 mmHg 68%
    18:00 0°C° 0 mm 1 m/S 737 mmHg 69%
    19:00 0°C° 0 mm 1 m/S 737 mmHg 70%
    20:00 -3°C° 0 mm 2 m/S 738 mmHg 71%
    21:00 -3°C° 0 mm 2 m/S 738 mmHg 72%
    22:00 -3°C° 0 mm 2 m/S 738 mmHg 73%
    23:00 -3°C° 0 mm 2 m/S 738 mmHg 74%

    1 März, Sonntag

    Zeit Temperatur Niederschläge Wind Luftdruck Luftfeuchtigkeit
    00:00 -3°C° 0 mm 2 m/S 738 mmHg 74%
    01:00 -3°C° 0 mm 2 m/S 738 mmHg 75%
    02:00 -3°C° 0 mm 2 m/S 738 mmHg 76%
    03:00 -3°C° 0 mm 2 m/S 738 mmHg 80%
    04:00 -3°C° 0 mm 2 m/S 738 mmHg 85%
    05:00 -3°C° 0 mm 2 m/S 738 mmHg 89%
    06:00 -3°C° 0.1 mm 2 m/S 739 mmHg 89%
    07:00 -3°C° 0.1 mm 2 m/S 739 mmHg 89%
    08:00 -2°C° 0.1 mm 2 m/S 739 mmHg 89%
    09:00 -2°C° 0 mm 3 m/S 739 mmHg 84%
    10:00 -1°C° 0 mm 3 m/S 739 mmHg 79%
    11:00 -1°C° 0 mm 3 m/S 739 mmHg 75%
    12:00 0°C° 0 mm 3 m/S 739 mmHg 73%
    13:00 -1°C° 0 mm 4 m/S 739 mmHg 72%
    14:00 -1°C° 0 mm 4 m/S 739 mmHg 71%
    15:00 -1°C° 0 mm 4 m/S 738 mmHg 71%
    16:00 -1°C° 0 mm 4 m/S 738 mmHg 71%
    17:00 -1°C° 0 mm 4 m/S 737 mmHg 71%
    18:00 -1°C° 0.3 mm 4 m/S 737 mmHg 79%
    19:00 -2°C° 0.3 mm 5 m/S 737 mmHg 88%
    20:00 -2°C° 0.3 mm 5 m/S 737 mmHg 96%
    21:00 -2°C° 0.8 mm 5 m/S 737 mmHg 96%
    22:00 -2°C° 0.8 mm 4 m/S 737 mmHg 97%
    23:00 -2°C° 0.8 mm 4 m/S 737 mmHg 97%
    Mehr zeigen